カタログに戻る

USA 158

運用中軍事GEO
NORAD 26770·PAYLOAD·🇺🇸 United States

打ち上げ May 18, 2001 から Cape Canaveral Space Force Station

Loading…

TLE

最新Source: Mike McCants

元期: Sep 15, 2026, 07:07 UTC

1 26770U 01020A   26258.29698378  .00000000  00000-0  00000-0 0    03
2 26770  11.4406  31.8330 0012126 115.0140 245.1240  0.98831955 22653

AllMySatでUSA 158をリアルタイム追跡

Download on the App Store